Elkins, WV

12:43 AM EDT on September 30, 2016 (GMT -0400)
Elkins-Randolph County

Weather History for KEKN - January, 2013

Change the Weather History Date:

Saturday, January 12, 2013

  Actual Average Record
Temperature  
Mean Temperature 56 °F 29 °F  
Max Temperature 68 °F 39 °F 72 °F (1916)
Min Temperature 44 °F 19 °F -12 °F (1977)
Degree Days  
Heating Degree Days 9 36  
Month to date heating degree days 377 432  
Since 1 July heating degree days 2639 2723  
Cooling Degree Days 0 0  
Month to date cooling degree days 0 0  
Year to date cooling degree days 0 0  
Growing Degree Days 6 (Base 50)    
Moisture  
Dew Point 47 °F    
Average Humidity 80    
Maximum Humidity 96    
Minimum Humidity 63    
Precipitation  
Precipitation T in 0.11 in 1.59 in (1907)
Month to date precipitation 0.22 1.23  
Year to date precipitation 0.22 1.23  
Snow  
Snow 0.00 in - - ()
Month to date snowfall 0.7  
Since 1 September snowfall 28.2  
Snow Depth 0.00 in    
Sea Level Pressure  
Sea Level Pressure 30.10 in    
Wind  
Wind Speed 2 mph (West)    
Max Wind Speed 13 mph    
Max Gust Speed 18 mph    
Visibility 7 miles    
Events Fog    
T = Trace of Precipitation, MM = Missing Value Source: NWS Daily Summary

Daily Weather History Graph

Daily Weather History Graph

Search for Another Location

Airport or City:

Trip Planner

Search our weather history database for the weather conditions in past years. The results will help you decide how hot, cold, wet, or windy it might be!

Date:

Astronomy

Jan. 12, 2013 Rise Set
Actual Time 7:37 AM EST 5:18 PM EST
Civil Twilight 7:07 AM EST 5:48 PM EST
Nautical Twilight 6:35 AM EST 6:21 PM EST
Astronomical Twilight 6:02 AM EST 6:53 PM EST
Moon 7:56 AM EST (1/12) 6:44 PM EST (1/12)
Length of Visible Light 10h 40m
Length of Day
9h 41m
New Moon, 1% of the Moon is Illuminated
Jan 12
New Moon
Jan 18
First Quarter
Jan 26
Full
Feb 3
Last Quarter
Feb 10
New

Hourly Weather History & Observations

Time (EST) Temp. Windchill Dew Point Humidity Pressure Visibility Wind Dir Wind Speed Gust Speed Precip Events Conditions
12:12 AM 46.4 °F - 44.6 °F 93% 30.07 in 1.8 mi Calm Calm - N/A   Mostly Cloudy
12:23 AM 46.4 °F - 44.6 °F 93% 30.07 in 2.5 mi Calm Calm - N/A   Mostly Cloudy
12:32 AM 44.6 °F - 44.6 °F 100% 30.08 in 1.8 mi Calm Calm - N/A   Overcast
12:37 AM 46.4 °F - 44.6 °F 93% 30.08 in 3.0 mi Calm Calm - N/A   Overcast
12:51 AM 46.9 °F - 45.0 °F 93% 30.10 in 4.0 mi Calm Calm - N/A   Overcast
1:51 AM 46.0 °F - 45.0 °F 96% 30.11 in 4.0 mi Calm Calm - N/A   Overcast
2:51 AM 46.0 °F - 45.0 °F 96% 30.11 in 5.0 mi Calm Calm - N/A   Overcast
4:51 AM 48.0 °F - 46.0 °F 93% 30.12 in 10.0 mi Calm Calm - N/A   Overcast
5:39 AM 46.4 °F - 46.4 °F 100% 30.10 in 9.0 mi Calm Calm - N/A   Mostly Cloudy
5:46 AM 46.4 °F 45.2 °F 44.6 °F 93% 30.10 in 8.0 mi Variable 3.5 mph - N/A   Overcast
5:51 AM 48.0 °F - 46.0 °F 93% 30.13 in 9.0 mi Calm Calm - N/A   Mostly Cloudy
6:01 AM 46.4 °F - 44.6 °F 93% 30.11 in 8.0 mi Calm Calm - N/A   Overcast
6:29 AM 46.4 °F 44.3 °F 46.4 °F 100% 30.12 in 9.0 mi Variable 4.6 mph - N/A   Mostly Cloudy
6:51 AM 48.2 °F - 46.4 °F 93% 30.13 in 10.0 mi Calm Calm - N/A   Mostly Cloudy
7:35 AM 48.2 °F - 46.4 °F 93% 30.14 in 10.0 mi Calm Calm - N/A   Mostly Cloudy
7:48 AM 48.2 °F - 46.4 °F 93% 30.13 in 10.0 mi Calm Calm - N/A   Scattered Clouds
7:51 AM 48.2 °F - 46.4 °F 93% 30.13 in 9.0 mi Calm Calm - N/A   Mostly Cloudy
8:18 AM 48.2 °F - 46.4 °F 93% 30.13 in 9.0 mi Calm Calm - N/A   Overcast
8:44 AM 50.0 °F - 48.2 °F 94% 30.14 in 10.0 mi Calm Calm - N/A   Overcast
8:51 AM 51.8 °F - 48.2 °F 88% 30.14 in 10.0 mi Calm Calm - N/A   Overcast
9:02 AM 51.8 °F - 48.2 °F 88% 30.14 in 10.0 mi Calm Calm - N/A   Overcast
9:51 AM 60.1 °F - 53.1 °F 78% 30.17 in 10.0 mi WSW 9.2 mph - N/A   Mostly Cloudy
10:01 AM 60.8 °F - 53.6 °F 77% 30.15 in 10.0 mi Calm Calm - N/A   Mostly Cloudy
10:26 AM 62.6 °F - 53.6 °F 72% 30.15 in 10.0 mi West 8.1 mph - N/A   Overcast
10:33 AM 62.6 °F - 53.6 °F 72% 30.15 in 10.0 mi West 9.2 mph - N/A   Mostly Cloudy
10:51 AM 64.0 °F - 55.0 °F 73% 30.15 in 10.0 mi West 8.1 mph - N/A   Mostly Cloudy
11:51 AM 64.9 °F - 54.0 °F 68% 30.14 in 10.0 mi WSW 11.5 mph 16.1 mph N/A   Mostly Cloudy
12:51 PM 64.0 °F - 53.1 °F 67% 30.11 in 10.0 mi Variable 4.6 mph - N/A   Overcast
1:51 PM 64.9 °F - 52.0 °F 63% 30.10 in 10.0 mi WSW 9.2 mph - N/A   Partly Cloudy
2:51 PM 64.9 °F - 51.1 °F 61% 30.12 in 10.0 mi West 5.8 mph - N/A   Partly Cloudy
3:51 PM 64.9 °F - 52.0 °F 63% 30.12 in 10.0 mi WNW 3.5 mph - N/A   Partly Cloudy
4:51 PM 60.1 °F - 52.0 °F 75% 30.13 in 10.0 mi Calm Calm - N/A   Clear
5:51 PM 55.9 °F - 50.0 °F 80% 30.12 in 10.0 mi Calm Calm - N/A   Clear
6:51 PM 52.0 °F - 48.9 °F 89% 30.11 in 10.0 mi Calm Calm - N/A   Clear
7:51 PM 52.0 °F - 50.0 °F 93% 30.10 in 10.0 mi Calm Calm - 0.00 in   Mostly Cloudy
8:51 PM 50.0 °F - 48.0 °F 93% 30.08 in 10.0 mi Calm Calm - N/A   Partly Cloudy
9:37 PM 48.2 °F - 46.4 °F 93% 30.07 in 1.5 mi Calm Calm - N/A   Partly Cloudy
9:47 PM 48.2 °F - 46.4 °F 93% 30.07 in 0.5 mi Calm Calm - N/A Fog Fog
9:51 PM 48.0 °F - 46.9 °F 96% 30.08 in 0.5 mi Calm Calm - N/A Fog Fog
10:02 PM 46.4 °F - 46.4 °F 100% 30.06 in 2.0 mi Calm Calm - N/A   Partly Cloudy
10:09 PM 46.4 °F - 46.4 °F 100% 30.06 in 4.0 mi Calm Calm - N/A   Mostly Cloudy
10:24 PM 46.4 °F - 44.6 °F 93% 30.06 in 1.8 mi Calm Calm - N/A   Scattered Clouds
10:34 PM 46.4 °F - 44.6 °F 93% 30.05 in 3.0 mi Calm Calm - N/A   Partly Cloudy
10:51 PM 46.9 °F - 45.0 °F 93% 30.06 in 5.0 mi Calm Calm - N/A   Clear
11:25 PM 44.6 °F - 42.8 °F 93% 30.05 in 1.8 mi Calm Calm - N/A   Clear
11:34 PM 44.6 °F - 44.6 °F 100% 30.05 in 0.2 mi Calm Calm - N/A Fog Fog
11:47 PM 44.6 °F - 42.8 °F 93% 30.04 in 1.0 mi Calm Calm - N/A   Clear
11:48 PM 44.1 °F - 43.0 °F 96% 30.06 in 1.2 mi Calm Calm - N/A   Clear
11:51 PM 44.6 °F - 42.8 °F 93% 30.05 in 3.0 mi Calm Calm - N/A   Clear
11:55 PM 44.6 °F - 42.8 °F 93% 30.04 in 1.5 mi Calm Calm - N/A   Clear